Purchase, NY

11:43 PM EDT on August 24, 2016 (GMT -0400)
Westchester County

Weather History for KHPN - November, 2011

Change the Weather History Date:

Thursday, November 17, 2011

  Actual Average Record
Temperature  
Mean Temperature 46 °F -  
Max Temperature 53 °F 48 °F 64 °F (1987)
Min Temperature 37 °F 34 °F 24 °F (1980)
Degree Days  
Heating Degree Days 19    
Moisture  
Dew Point 33 °F    
Average Humidity 66    
Maximum Humidity 94    
Minimum Humidity 47    
Precipitation  
Precipitation 0.02 in - - ()
Sea Level Pressure  
Sea Level Pressure 29.86 in    
Wind  
Wind Speed 10 mph (NW)    
Max Wind Speed 16 mph    
Max Gust Speed 25 mph    
Visibility 10 miles    
Events Rain    
Averages and records for this station are not official NWS values.
T = Trace of Precipitation, MM = Missing Value Source: NWS Daily Summary

Daily Weather History Graph

Daily Weather History Graph

Search for Another Location

Airport or City:

Trip Planner

Search our weather history database for the weather conditions in past years. The results will help you decide how hot, cold, wet, or windy it might be!

Date:

Astronomy

Nov. 17, 2011 Rise Set
Actual Time 6:44 AM EST 4:34 PM EST
Civil Twilight 6:14 AM EST 5:04 PM EST
Nautical Twilight 5:41 AM EST 5:37 PM EST
Astronomical Twilight 5:08 AM EST 6:10 PM EST
Moon 10:53 PM EST (11/17) 11:51 AM EST (11/17)
Length of Visible Light 10h 49m
Length of Day
9h 50m
Waning Gibbous, 60% of the Moon is Illuminated
Nov 17
Waning Gibbous
Nov 18
Last Quarter
Nov 25
New
Dec 2
First Quarter
Dec 10
Full

Hourly Weather History & Observations

Time (EST) Temp. Windchill Dew Point Humidity Pressure Visibility Wind Dir Wind Speed Gust Speed Precip Events Conditions
12:56 AM 53.6 °F - 51.8 °F 94% 29.76 in 10.0 mi NW 5.8 mph - N/A Rain Light Rain
1:24 AM 53.6 °F - 50.0 °F 88% 29.75 in 10.0 mi NW 6.9 mph - 0.00 in   Overcast
1:56 AM 52.0 °F - 50.0 °F 93% 29.78 in 10.0 mi NW 4.6 mph - 0.00 in   Overcast
2:56 AM 51.1 °F - 48.0 °F 89% 29.79 in 10.0 mi NNW 8.1 mph - N/A   Overcast
3:56 AM 48.9 °F - 39.9 °F 71% 29.81 in 10.0 mi NW 12.7 mph - N/A   Overcast
4:56 AM 46.9 °F - 37.0 °F 68% 29.82 in 10.0 mi NW 13.8 mph - N/A   Overcast
5:56 AM 46.0 °F 41.0 °F 34.0 °F 63% 29.83 in 10.0 mi NW 10.4 mph - N/A   Overcast
6:56 AM 46.0 °F 41.9 °F 35.1 °F 66% 29.83 in 10.0 mi NNW 8.1 mph - N/A   Mostly Cloudy
7:56 AM 45.0 °F 38.9 °F 34.0 °F 65% 29.83 in 10.0 mi North 12.7 mph - N/A   Mostly Cloudy
8:56 AM 44.1 °F 36.8 °F 30.9 °F 60% 29.86 in 10.0 mi North 16.1 mph - N/A   Overcast
9:56 AM 45.0 °F 38.2 °F 30.9 °F 58% 29.88 in 10.0 mi NNW 15.0 mph - N/A   Overcast
10:56 AM 45.0 °F 39.7 °F 30.9 °F 58% 29.84 in 10.0 mi NNW 10.4 mph - N/A   Overcast
11:56 AM 44.1 °F 38.1 °F 30.9 °F 60% 29.82 in 10.0 mi NW 11.5 mph - N/A   Overcast
12:56 PM 44.1 °F 38.1 °F 30.9 °F 60% 29.82 in 10.0 mi NW 11.5 mph - 0.00 in   Overcast
1:56 PM 42.1 °F 38.4 °F 34.0 °F 73% 29.82 in 8.0 mi NNW 5.8 mph - 0.01 in Rain Light Rain
2:56 PM 42.1 °F 34.2 °F 30.0 °F 62% 29.82 in 10.0 mi NNW 16.1 mph 21.9 mph 0.00 in Rain Light Rain
3:56 PM 39.9 °F 34.5 °F 32.0 °F 73% 29.83 in 10.0 mi North 8.1 mph - 0.01 in   Mostly Cloudy
4:56 PM 39.9 °F 36.7 °F 32.0 °F 73% 29.84 in 10.0 mi NW 4.6 mph - N/A   Mostly Cloudy
5:56 PM 42.1 °F 37.7 °F 30.0 °F 62% 29.87 in 10.0 mi West 6.9 mph - N/A   Mostly Cloudy
6:56 PM 42.1 °F 34.9 °F 26.1 °F 53% 29.91 in 10.0 mi WNW 13.8 mph 23.0 mph N/A   Overcast
7:56 PM 41.0 °F 32.8 °F 21.9 °F 47% 29.94 in 10.0 mi WNW 16.1 mph 25.3 mph N/A   Mostly Cloudy
8:56 PM 39.9 °F 32.1 °F 23.0 °F 51% 29.97 in 10.0 mi WNW 13.8 mph 20.7 mph N/A   Overcast
9:56 PM 39.9 °F 33.4 °F 21.9 °F 49% 29.99 in 10.0 mi West 10.4 mph 23.0 mph N/A   Scattered Clouds
10:56 PM 39.2 °F 30.8 °F 23.0 °F 52% 29.99 in 10.0 mi West 15.0 mph 21.9 mph N/A   Clear
11:56 PM 37.9 °F 30.5 °F 24.1 °F 57% 30.03 in 10.0 mi WNW 11.5 mph 19.6 mph N/A   Clear